This demonstration page uses our WeatherBlox Daily Observations layout. Learn more.

Left ArrowRight Arrow

36.19886, -115.1175

Hourly Observations for November 3, 2015

Temp ( °F °C ) Dew Point ( °F °C ) Humidity (%) Winds ( mph kmh ) Pressure ( in mb ) Visibility ( mi km ) Precip ( " mm )
12:53 am 00:53 Clear 57 13.9 37 2.8 47 47 SSW 16 26 29.63 1004 10 16 0.00 0.00
1:53 am 01:53 Clear 56 13.3 35 1.7 46 46 S 13 20 29.65 1004 10 16 0.00 0.00
2:53 am 02:53 Clear 55 12.8 33 0.6 44 44 Calm 29.67 1005 10 16 0.00 0.00
3:53 am 03:53 Clear 55 12.8 33 0.6 44 44 S 14 22 29.67 1005 10 16 0.00 0.00
4:53 am 04:53 Clear 54 12.2 33 0.6 45 45 SW 16 26 29.69 1006 10 16 0.00 0.00
5:53 am 05:53 Clear 53 11.7 33 0.6 47 47 S 10 17 29.72 1006 10 16 0.00 0.00
6:53 am 06:53 Sunny 54 12.2 33 0.6 45 45 SW 8 13 29.75 1008 10 16 0.00 0.00
7:53 am 07:53 Sunny 55 12.8 33 0.6 44 44 NNW 6 9 29.78 1009 10 16 0.00 0.00
8:53 am 08:53 Sunny 59 15 33 0.6 38 38 N 5 7 29.80 1009 10 16 0.00 0.00
9:53 am 09:53 Sunny 59 15 33 0.6 38 38 Calm 29.80 1009 10 16 0.00 0.00
10:53 am 10:53 Mostly Sunny 61 16.1 33 0.6 35 35 Calm 29.79 1009 N/A 0.00 0.00
11:53 am 11:53 Sunny 62 16.7 31 -0.6 31 31 SSW 7 11 29.76 1008 10 16 0.00 0.00
12:53 pm 12:53 Sunny 62 16.7 30 -1.1 30 30 NNW 3 6 29.75 1007 10 16 0.00 0.00
1:53 pm 13:53 Mostly Sunny 63 17.2 28 -2.2 27 27 VRB 6 9 29.74 1007 10 16 0.00 0.00
2:53 pm 14:53 Mostly Cloudy 61 16.1 34 1.1 36 36 N 17 28 29.75 1007 10 16 0.00 0.00
3:53 pm 15:53 Sunny 59 15 33 0.6 38 38 N 17 28 29.75 1008 10 16 0.00 0.00
4:53 pm 16:53 Clear 57 13.9 35 1.7 44 44 NNW 15 24 29.76 1008 10 16 0.00 0.00
5:53 pm 17:53 Clear 57 13.9 34 1.1 42 42 NNW 13 20 29.78 1008 10 16 0.00 0.00
6:53 pm 18:53 Mostly Cloudy 57 13.9 32 0 39 39 NNW 10 17 29.78 1009 10 16 0.00 0.00
7:53 pm 19:53 Mostly Cloudy 57 13.9 32 0 39 39 NNW 7 11 29.78 1009 10 16 0.00 0.00
8:53 pm 20:53 Clear 55 12.8 32 0 42 42 NNW 7 11 29.79 1009 10 16 0.00 0.00
9:53 pm 21:53 Clear 55 12.8 33 0.6 44 44 WNW 5 7 29.80 1009 10 16 0.00 0.00
10:53 pm 22:53 Cloudy 55 12.8 33 0.6 44 44 WSW 5 7 29.80 1009 10 16 0.00 0.00
11:53 pm 23:53 Cloudy 55 12.8 33 0.6 44 44 NW 3 6 29.79 1009 10 16 0.00 0.00

Powered by AerisWeather